| time (UTC) | temp F | wind direction | speed knots | gust knots | rain 1hr in | rain 24hr in | rain mn in | humidity % | barometer mb |
| 20260901122004 | 64 | 120 | 0.9 | 1.7 | 0.00 | 0.00 | 0.00 | 94 | 1022.0 |
| 20260901121004 | 63 | 78 | 0.0 | 1.7 | 0.00 | 0.00 | 0.00 | 94 | 1022.0 |
| 20260901120003 | 64 | 104 | 1.7 | 1.7 | 0.00 | 0.00 | 0.00 | 94 | 1021.8 |
| 20260901115003 | 64 | 106 | 0.9 | 1.7 | 0.00 | 0.00 | 0.00 | 94 | 1021.9 |
| 20260901112006 | 64 | 111 | 0.9 | 1.7 | 0.00 | 0.00 | 0.00 | 95 | 1021.8 |
| 20260901111004 | 64 | 164 | 1.7 | 2.6 | 0.00 | 0.00 | 0.00 | 95 | 1021.7 |
| 20260901110004 | 64 | 152 | 0.9 | 2.6 | 0.00 | 0.00 | 0.00 | 95 | 1021.6 |
| 20260901104004 | 64 | 22 | 0.9 | 1.7 | 0.00 | 0.00 | 0.00 | 94 | 1021.8 |
| 20260901103004 | 64 | 53 | 0.9 | 2.6 | 0.00 | 0.00 | 0.00 | 94 | 1021.8 |
| 20260901102005 | 64 | 342 | 0.9 | 4.3 | 0.00 | 0.00 | 0.00 | 94 | 1021.9 |
| 20260901101004 | 65 | 323 | 2.6 | 4.3 | 0.00 | 0.00 | 0.00 | 93 | 1021.8 |
| 20260901100003 | 65 | 359 | 0.9 | 1.7 | 0.00 | 0.00 | 0.00 | 92 | 1022.0 |
| 20260901095003 | 65 | 356 | 0.9 | 1.7 | 0.00 | 0.00 | 0.00 | 92 | 1021.9 |
| 20260901094005 | 65 | 3 | 0.9 | 2.6 | 0.00 | 0.00 | 0.00 | 91 | 1022.0 |
| 20260901093004 | 65 | 302 | 0.0 | 2.6 | 0.00 | 0.00 | 0.00 | 91 | 1021.9 |
| 20260901092004 | 65 | 58 | 0.9 | 2.6 | 0.00 | 0.00 | 0.00 | 90 | 1021.9 |
| 20260901091004 | 65 | 95 | 0.9 | 1.7 | 0.00 | 0.00 | 0.00 | 90 | 1022.0 |
| 20260901090004 | 65 | 298 | 0.0 | 1.7 | 0.00 | 0.00 | 0.00 | 90 | 1022.3 |
| 20260901085003 | 65 | 82 | 0.9 | 2.6 | 0.00 | 0.00 | 0.00 | 91 | 1022.4 |
| 20260901084004 | 65 | 100 | 0.9 | 2.6 | 0.00 | 0.00 | 0.00 | 91 | 1022.4 |
| 20260901083003 | 65 | 90 | 0.9 | 2.6 | 0.00 | 0.00 | 0.00 | 91 | 1022.6 |
| 20260901081004 | 65 | 145 | 0.9 | 2.6 | 0.00 | 0.00 | 0.00 | 91 | 1022.7 |
| 20260901080003 | 65 | 127 | 0.9 | 2.6 | 0.00 | 0.00 | 0.00 | 92 | 1022.8 |
| 20260901075004 | 65 | 98 | 0.9 | 4.3 | 0.00 | 0.00 | 0.00 | 92 | 1022.9 |
| 20260901074004 | 65 | 176 | 0.0 | 4.3 | 0.00 | 0.00 | 0.00 | 92 | 1022.9 |
| 20260901073003 | 65 | 158 | 1.7 | 4.3 | 0.00 | 0.00 | 0.00 | 92 | 1022.8 |
| 20260901072005 | 65 | 262 | 0.9 | 2.6 | 0.00 | 0.00 | 0.00 | 92 | 1022.9 |
| 20260901071003 | 65 | 151 | 0.0 | 2.6 | 0.00 | 0.00 | 0.00 | 92 | 1022.9 |
| 20260901070004 | 65 | 122 | 0.9 | 2.6 | 0.00 | 0.00 | 0.00 | 92 | 1022.9 |
| 20260901065004 | 65 | 122 | 0.9 | 2.6 | 0.00 | 0.00 | 0.00 | 92 | 1022.8 |
| 20260901064004 | 65 | 121 | 1.7 | 2.6 | 0.00 | 0.00 | 0.00 | 92 | 1022.8 |
| 20260901063004 | 64 | 112 | 0.0 | 0.9 | 0.00 | 0.00 | 0.00 | 93 | 1022.6 |
| 20260901062004 | 64 | 345 | 0.0 | 2.6 | 0.00 | 0.00 | 0.00 | 93 | 1022.9 |
| 20260901061007 | 64 | 83 | 0.9 | 4.3 | 0.00 | 0.00 | 0.00 | 93 | 1022.7 |
| 20260901060004 | 64 | 103 | 0.9 | 2.6 | 0.00 | 0.00 | 0.00 | 93 | 1022.7 |
| 20260901054004 | 64 | 244 | 2.6 | 5.2 | 0.00 | 0.00 | 0.00 | 93 | 1022.7 |
| 20260901053004 | 64 | 256 | 2.6 | 5.2 | 0.00 | 0.00 | 0.00 | 92 | 1022.5 |
| 20260901052010 | 66 | 337 | 4.3 | 5.2 | 0.00 | 0.00 | 0.00 | 89 | 1022.2 |
| 20260901051005 | 66 | 277 | 0.0 | 2.6 | 0.00 | 0.00 | 0.00 | 86 | 1022.2 |
| 20260901050004 | 67 | 258 | 0.9 | 8.7 | 0.00 | 0.00 | 0.00 | 86 | 1022.4 |
| 20260901045004 | 67 | 153 | 6.1 | 12.2 | 0.00 | 0.00 | 0.00 | 86 | 1022.5 |
| 20260901044004 | 67 | 114 | 4.3 | 12.2 | 0.00 | 0.00 | 0.00 | 86 | 1022.6 |
| 20260901043004 | 67 | 157 | 4.3 | 11.3 | 0.00 | 0.00 | 0.00 | 85 | 1022.6 |
| 20260901041004 | 67 | 137 | 5.2 | 13.9 | 0.00 | 0.00 | 0.00 | 84 | 1022.6 |
| 20260901040004 | 67 | 145 | 7.0 | 15.6 | 0.00 | 0.00 | 0.00 | 83 | 1022.4 |
| 20260901035006 | 67 | 133 | 3.5 | 15.6 | 0.00 | 0.00 | 0.00 | 85 | 1022.3 |
| 20260901034004 | 68 | 135 | 6.1 | 19.1 | 0.00 | 0.00 | 0.00 | 81 | 1022.4 |
| 20260901033005 | 68 | 133 | 7.0 | 14.8 | 0.00 | 0.00 | 0.00 | 80 | 1022.5 |
| 20260901032005 | 69 | 129 | 4.3 | 13.9 | 0.00 | 0.00 | 0.00 | 78 | 1022.2 |
| 20260901031004 | 69 | 139 | 8.7 | 13.9 | 0.00 | 0.00 | 0.00 | 78 | 1022.1 |
| 20260901030004 | 69 | 141 | 7.8 | 15.6 | 0.00 | 0.00 | 0.00 | 79 | 1021.8 |
| 20260901025004 | 69 | 131 | 11.3 | 15.6 | 0.00 | 0.00 | 0.00 | 78 | 1021.6 |
| 20260901023005 | 69 | 119 | 8.7 | 13.9 | 0.00 | 0.00 | 0.00 | 80 | 1021.2 |
| 20260901022005 | 69 | 126 | 6.1 | 13.9 | 0.00 | 0.00 | 0.00 | 79 | 1021.0 |
| 20260901021004 | 69 | 99 | 6.1 | 17.4 | 0.00 | 0.00 | 0.00 | 78 | 1021.1 |
| 20260901020003 | 69 | 123 | 5.2 | 13.9 | 0.00 | 0.00 | 0.00 | 78 | 1020.9 |
| 20260901015004 | 69 | 87 | 3.5 | 14.8 | 0.00 | 0.00 | 0.00 | 80 | 1020.8 |
| 20260901014004 | 69 | 151 | 7.0 | 14.8 | 0.00 | 0.00 | 0.00 | 79 | 1020.7 |
| 20260901013004 | 69 | 125 | 7.0 | 19.1 | 0.00 | 0.00 | 0.00 | 81 | 1020.7 |
| 20260901012004 | 69 | 126 | 7.8 | 14.8 | 0.00 | 0.00 | 0.00 | 82 | 1020.6 |
| 20260901011004 | 69 | 178 | 4.3 | 17.4 | 0.00 | 0.00 | 0.00 | 81 | 1020.8 |
| 20260901010004 | 70 | 170 | 7.8 | 19.1 | 0.00 | 0.00 | 0.00 | 80 | 1020.7 |
| 20260901003005 | 71 | 157 | 7.8 | 17.4 | 0.00 | 0.00 | 0.00 | 84 | 1020.4 |
| 20260901002004 | 71 | 147 | 5.2 | 15.6 | 0.00 | 0.00 | 0.00 | 83 | 1020.2 |
| 20260901001005 | 72 | 144 | 10.4 | 14.8 | 0.00 | 0.00 | 0.00 | 83 | 1020.3 |
| 20260901000005 | 73 | 151 | 5.2 | 13.0 | 0.00 | 0.00 | 0.00 | 77 | 1020.1 |
| 20260831235005 | 74 | 145 | 5.2 | 11.3 | 0.00 | 0.00 | 0.00 | 74 | 1020.0 |
| 20260831234004 | 74 | 164 | 5.2 | 11.3 | 0.00 | 0.00 | 0.00 | 73 | 1019.8 |
| 20260831233005 | 74 | 184 | 6.1 | 11.3 | 0.00 | 0.00 | 0.00 | 74 | 1019.7 |
| 20260831232005 | 75 | 303 | 4.3 | 13.0 | 0.00 | 0.00 | 0.00 | 73 | 1019.5 |
| 20260831231004 | 76 | 188 | 3.5 | 12.2 | 0.00 | 0.00 | 0.00 | 71 | 1019.4 |
| 20260831230004 | 74 | 176 | 4.3 | 11.3 | 0.00 | 0.00 | 0.00 | 74 | 1019.2 |
| 20260831225005 | 74 | 174 | 2.6 | 10.4 | 0.00 | 0.00 | 0.00 | 75 | 1019.5 |
| 20260831224004 | 74 | 227 | 4.3 | 8.7 | 0.00 | 0.00 | 0.00 | 72 | 1019.6 |
| 20260831223004 | 75 | 115 | 2.6 | 11.3 | 0.00 | 0.00 | 0.00 | 71 | 1019.6 |
| 20260831222005 | 74 | 169 | 2.6 | 11.3 | 0.00 | 0.00 | 0.00 | 77 | 1019.9 |
| 20260831214004 | 76 | 193 | 2.6 | 11.3 | 0.00 | 0.00 | 0.00 | 64 | 1019.6 |
| 20260831213004 | 78 | 176 | 0.9 | 7.0 | 0.00 | 0.00 | 0.00 | 62 | 1019.9 |
| 20260831212005 | 78 | 203 | 2.6 | 7.8 | 0.00 | 0.00 | 0.00 | 61 | 1020.0 |
| 20260831211005 | 78 | 64 | 2.6 | 8.7 | 0.00 | 0.00 | 0.00 | 61 | 1020.0 |
| 20260831210005 | 78 | 170 | 1.7 | 11.3 | 0.00 | 0.00 | 0.00 | 59 | 1020.2 |
| 20260831205008 | 78 | 145 | 8.7 | 11.3 | 0.00 | 0.00 | 0.00 | 58 | 1020.4 |
| 20260831204004 | 79 | 155 | 6.1 | 8.7 | 0.00 | 0.00 | 0.00 | 57 | 1020.4 |
| 20260831203004 | 80 | 163 | 6.1 | 11.3 | 0.00 | 0.00 | 0.00 | 55 | 1020.6 |
| 20260831202004 | 80 | 153 | 4.3 | 11.3 | 0.00 | 0.00 | 0.00 | 54 | 1020.5 |
| 20260831201004 | 80 | 174 | 4.3 | 10.4 | 0.00 | 0.00 | 0.00 | 52 | 1020.9 |
| 20260831200004 | 80 | 154 | 7.0 | 10.4 | 0.00 | 0.00 | 0.00 | 50 | 1020.9 |
| 20260831195006 | 80 | 171 | 4.3 | 10.4 | 0.00 | 0.00 | 0.00 | 50 | 1021.0 |
| 20260831194004 | 79 | 171 | 4.3 | 10.4 | 0.00 | 0.00 | 0.00 | 52 | 1021.1 |
| 20260831193005 | 80 | 95 | 1.7 | 7.8 | 0.00 | 0.00 | 0.00 | 49 | 1021.3 |
| 20260831192004 | 75 | 103 | 1.7 | 8.7 | 0.00 | 0.00 | 0.00 | 51 | 1021.4 |
| 20260831191002 | 79 | 139 | 5.2 | 7.8 | 0.00 | 0.00 | 0.00 | 58 | 1021.6 |
| 20260831184004 | 76 | 247 | 3.5 | 5.2 | 0.00 | 0.00 | 0.00 | 64 | 1021.8 |
| 20260831183003 | 76 | 280 | 1.7 | 5.2 | 0.00 | 0.00 | 0.00 | 64 | 1022.0 |
| 20260831182006 | 77 | 169 | 2.6 | 6.1 | 0.00 | 0.00 | 0.00 | 64 | 1021.8 |
| 20260831181002 | 75 | 181 | 0.9 | 5.2 | 0.00 | 0.00 | 0.00 | 66 | 1022.2 |
| 20260831180004 | 75 | 0 | 0.0 | 5.2 | 0.00 | 0.00 | 0.00 | 66 | 1022.2 |
| 20260831175003 | 75 | 337 | 0.9 | 5.2 | 0.00 | 0.00 | 0.00 | 70 | 1022.5 |
| 20260831173002 | 73 | 19 | 2.6 | 7.8 | 0.00 | 0.00 | 0.00 | 73 | 1022.7 |
| 20260831172003 | 73 | 316 | 1.7 | 5.2 | 0.00 | 0.00 | 0.00 | 72 | 1022.7 |
| 20260831171003 | 71 | 354 | 0.9 | 4.3 | 0.00 | 0.00 | 0.00 | 73 | 1022.9 |
| 20260831170003 | 72 | 27 | 0.9 | 8.7 | 0.00 | 0.00 | 0.00 | 73 | 1022.9 |
| 20260831164003 | 71 | 342 | 4.3 | 6.1 | 0.00 | 0.00 | 0.00 | 74 | 1022.9 |
| 20260831163003 | 71 | 346 | 0.9 | 6.1 | 0.00 | 0.00 | 0.00 | 75 | 1022.9 |
| 20260831162002 | 69 | 41 | 2.6 | 5.2 | 0.00 | 0.00 | 0.00 | 80 | 1022.9 |
| 20260831161003 | 71 | 68 | 0.9 | 5.2 | 0.00 | 0.00 | 0.00 | 80 | 1023.1 |
| 20260831155002 | 68 | 47 | 0.9 | 6.1 | 0.00 | 0.00 | 0.00 | 83 | 1023.4 |
| 20260831154004 | 67 | 61 | 1.7 | 6.1 | 0.00 | 0.00 | 0.00 | 85 | 1023.1 |
| 20260831153003 | 68 | 26 | 1.7 | 5.2 | 0.00 | 0.00 | 0.00 | 86 | 1023.4 |
| 20260831152003 | 68 | 2 | 1.7 | 4.3 | 0.00 | 0.00 | 0.00 | 85 | 1023.4 |
| 20260831151003 | 68 | 306 | 0.9 | 4.3 | 0.00 | 0.00 | 0.00 | 85 | 1023.3 |
| 20260831150002 | 67 | 3 | 2.6 | 4.3 | 0.00 | 0.00 | 0.00 | 85 | 1023.5 |
| 20260831145003 | 68 | 343 | 1.7 | 4.3 | 0.00 | 0.00 | 0.00 | 84 | 1023.2 |
| 20260831144002 | 68 | 12 | 1.7 | 5.2 | 0.00 | 0.00 | 0.00 | 84 | 1023.3 |
| 20260831143003 | 68 | 88 | 1.7 | 2.6 | 0.00 | 0.00 | 0.00 | 82 | 1023.3 |
| 20260831142003 | 66 | 112 | 0.9 | 1.7 | 0.00 | 0.00 | 0.00 | 88 | 1023.4 |
| 20260831140003 | 65 | 143 | 1.7 | 1.7 | 0.00 | 0.00 | 0.00 | 91 | 1023.3 |
| 20260831134003 | 65 | 190 | 1.7 | 2.6 | 0.00 | 0.00 | 0.00 | 91 | 1023.4 |
| 20260831131003 | 64 | 195 | 0.0 | 1.7 | 0.00 | 0.00 | 0.00 | 92 | 1023.0 |
| 20260831125003 | 64 | 25 | 0.9 | 1.7 | 0.00 | 0.00 | 0.00 | 92 | 1022.9 |
| 20260831124002 | 64 | 333 | 0.0 | 2.6 | 0.00 | 0.00 | 0.00 | 92 | 1022.8 |